#timestamp,LO_Frequency,Hit,StdDev 
1563699615.6,286047001.4,N
1563699635.5,286047002.2,N
1563699655.3,286047002.5,N
1563699675.2,286047002.2,N
1563699695.0,286046999.7,N
1563699695.9,286046999.7,N
1563699715.8,286047001.9,N
1563699735.6,286047004.4,Y
1563699755.4,286047000.3,P
1563699775.3,286047000.9,N
1563699795.1,286047000.3,N
1563699815.9,286046999.9,N
1563699835.7,286047002.6,Y
1563699855.5,286047002.0,P
1563699875.4,286047002.8,P
1563699895.2,286047002.3,N
1563699915.1,286047002.6,Y
1563699916.0,286047002.6,P
1563699935.8,286046998.7,P
1563699955.6,286047000.5,N
1563699975.5,286047000.2,N
1563699995.3,286047002.5,N
1563700015.2,286047001.6,N
1563700035.9,286047002.1,N
1563700055.7,286047002.8,N
1563700075.6,286047002.5,N
1563700095.4,286047002.5,N
1563700115.2,286046999.7,N
1563700135.1,286047001.6,N
1563700136.0,286047001.6,N
1563700155.8,286047003.5,N
1563700175.7,286047001.5,N
1563700195.5,286047002.0,N
1563700215.3,286047002.6,N
1563700235.2,286046999.9,N
1563700255.0,286047000.9,N
1563700255.9,286047000.9,N
1563700275.7,286046999.9,N
1563700295.6,286047002.8,N
1563700315.4,286047001.4,N
1563700335.3,286047003.6,Y
1563700355.1,286046999.7,P
1563700356.0,286046999.7,N
1563700375.8,286047000.1,N
1563700395.7,286047000.3,N
1563700415.5,286047000.1,N
1563700435.4,286047000.0,N
1563700455.2,286047002.8,Y
1563700475.0,286047002.2,P
1563700475.9,286047002.2,N
1563700495.8,286047002.8,N
1563700515.6,286047002.7,N
1563700535.5,286047002.8,N
1563700555.3,286047001.5,N
1563700575.1,286047001.3,N
1563700595.9,286047001.9,N
1563700615.7,286047004.0,Y
1563700635.5,286047002.8,P
1563700655.4,286047002.7,P
1563700675.2,286047001.5,P
1563700695.1,286047001.4,N
1563700696.0,286047001.4,N
1563700715.8,286047001.7,N
1563700735.6,286047002.1,Y
1563700755.5,286047000.9,P
1563700775.3,286047000.1,N
1563700795.2,286047000.2,N
1563700815.9,286047000.1,N
1563700835.7,286047000.4,N
1563700855.6,286046999.7,N
1563700875.4,286047001.0,N
1563700895.2,286046998.8,N
1563700915.1,286046996.6,Y
1563700916.0,286046996.6,P
1563700935.8,286046996.5,N
1563700955.7,286046997.5,N
1563700975.5,286046997.0,N
1563700995.3,286046997.5,N
1563701015.2,286046996.9,N
1563701035.0,286046996.5,N
1563701035.9,286046996.5,N
1563701055.8,286046999.5,N
1563701075.6,286046999.3,N
1563701095.4,286046998.3,N
1563701115.3,286046998.2,N
1563701135.1,286047001.2,N
1563701155.8,286047001.0,N
1563701175.7,286047000.7,N
1563701195.5,286047000.7,N
1563701215.4,286047000.5,N
1563701235.2,286046999.8,N
1563701255.0,286047000.8,N
1563701255.9,286047000.8,N
1563701275.8,286046998.1,N
1563701295.6,286047001.0,N
1563701315.4,286047000.3,N
1563701335.3,286046998.7,N
1563701355.1,286046998.1,N
1563701375.9,286047001.1,N
1563701395.7,286046999.9,N
1563701415.5,286047000.6,N
1563701435.4,286047000.8,N
1563701455.2,286047000.0,N
1563701475.0,286047002.7,N
1563701476.0,286047002.7,N
1563701495.8,286047002.6,N
1563701515.6,286047001.6,N
1563701535.5,286047002.2,N
1563701555.3,286047000.2,N
1563701575.1,286047000.7,N
1563701595.9,286047002.8,N
1563701615.7,286047002.1,N
1563701635.6,286047001.8,N
1563701655.4,286047002.3,N
1563701675.2,286047000.2,N
1563701695.1,286047002.5,N
1563701696.0,286047002.5,N
1563701715.8,286047002.2,N
1563701735.7,286047002.2,N
1563701755.5,286047001.7,N
1563701775.3,286047004.4,Y
1563701795.2,286047001.6,P
1563701815.0,286047001.9,P
1563701815.9,286047001.9,P
1563701835.7,286047002.0,Y
1563701855.6,286047000.3,P
1563701875.4,286047000.4,N
1563701895.3,286046999.9,N
1563701915.1,286046999.8,N
1563701935.8,286047002.1,Y
1563701955.7,286047003.9,P
1563701975.5,286047004.4,N
1563701995.4,286047003.2,N
1563702015.2,286047004.3,N
1563702035.0,286047002.2,N
1563702035.9,286047002.2,N
1563702055.8,286047001.1,N
1563702075.6,286046998.2,N
1563702095.4,286046999.3,N
1563702115.3,286046998.9,N
1563702135.1,286046998.3,N
1563702155.9,286046998.8,N
1563702175.2,286046998.8,N
1563702195.9,286046998.4,N
1563702215.7,286046999.1,N
1563702235.6,286047001.1,N
1563702255.4,286046999.3,N
1563702275.2,286046999.1,N
1563702295.1,286046998.7,N
1563702296.0,286046998.7,N
1563702315.8,286046998.6,N
1563702335.7,286046998.4,N
1563702355.5,286046998.1,N
1563702375.3,286047000.7,N
1563702395.2,286047000.4,N
1563702415.0,286047001.1,N
1563702415.9,286047001.1,N
1563702435.8,286046998.5,N
1563702455.6,286046999.0,N
1563702475.4,286046999.0,N
1563702495.3,286046999.4,N
1563702515.1,286046998.8,N
1563702535.8,286046998.4,N
1563702555.7,286046999.3,N
1563702575.5,286046997.4,N
1563702595.4,286046995.0,Y
1563702615.2,286046995.3,P
1563702635.0,286046995.0,N
1563702635.9,286046995.0,N
1563702655.8,286046997.1,N
1563702675.6,286046996.9,N
1563702695.5,286046997.1,N
1563702715.3,286046997.0,N
1563702735.1,286046997.2,N
1563702755.9,286046997.1,N
1563702775.7,286046999.3,N
1563702795.5,286046998.6,N
1563702815.4,286047001.1,N
1563702835.2,286046998.6,N
1563702855.1,286046999.1,N
1563702856.0,286046999.1,N
1563702875.8,286046999.4,N
1563702895.6,286046999.1,N
1563702915.5,286047000.9,N
1563702935.3,286046998.8,N
1563702955.1,286046999.1,N
1563702975.9,286046999.2,N
1563702995.7,286046998.8,N
1563703015.6,286046999.6,N
1563703035.4,286046998.7,N
1563703055.2,286047001.1,N
1563703075.1,286047001.0,N
1563703076.0,286047001.0,N
1563703095.8,286047001.0,N
1563703115.7,286047001.1,N
1563703135.5,286046998.7,N
1563703155.3,286046996.5,N
1563703175.2,286046996.9,N
1563703195.0,286046996.7,N
1563703195.9,286046996.7,N
